Location: Asheville, NC
(35.6000°N, 82.5500°W)
Time: 01:41:48
(UTC-05:00)

CAS-4B - Visible Passes

Search period start: 22 February 2018 00:00
Search period end: 04 March 2018 00:00
Orbit: 533 x 543 km, 43.0° (Epoch: 21 February)

Date Brightness Start Highest point End Pass type
(mag) Time Alt. Az. Time Alt. Az. Time Alt. Az.
22 Feb ? 19:54:34 10° WNW 19:58:08 28° N 19:58:35 27° NNE visible
23 Feb ? 19:45:00 10° NW 19:48:35 29° N 19:49:28 27° NNE visible
24 Feb ? 19:35:22 10° NW 19:39:02 31° N 19:40:22 25° NE visible
24 Feb ? 21:15:30 10° WNW 21:15:45 12° WNW 21:15:45 12° WNW visible
25 Feb ? 19:25:44 10° NW 19:29:29 34° NNE 19:31:17 23° ENE visible
25 Feb ? 21:05:51 10° WNW 21:06:41 16° WNW 21:06:41 16° WNW visible
26 Feb ? 19:16:04 10° NW 19:19:54 38° NNE 19:22:16 20° ENE visible
26 Feb ? 20:56:13 10° WNW 20:57:40 21° WNW 20:57:40 21° WNW visible
27 Feb ? 19:06:23 10° NW 19:10:18 43° NNE 19:13:19 16° E visible
27 Feb ? 20:46:37 10° WNW 20:48:43 27° W 20:48:43 27° W visible
28 Feb ? 18:56:42 10° WNW 19:00:41 51° NNE 19:04:27 11° E visible
28 Feb ? 20:37:05 10° WNW 20:39:52 31° WSW 20:39:52 31° WSW visible
01 Mar ? 18:47:01 10° WNW 18:51:04 62° NNE 18:55:06 10° ESE visible
01 Mar ? 20:27:37 10° W 20:31:04 27° SW 20:31:06 27° SW visible
02 Mar ? 20:18:15 10° W 20:21:18 20° SW 20:22:29 18° SSW visible
03 Mar ? 20:09:05 10° W 20:11:31 15° SW 20:13:56 10° S visible
